Hourly Weather Balchik

Today, 27 October, Tuesday

Time Temperature Precipitation Wind Pressure Humidity
00:00 +13°C° 0 mm 1 mps 738 mmHg 82%
01:00 +13°C° 0 mm 1 mps 738 mmHg 82%
02:00 +12°C° 0 mm 1 mps 738 mmHg 81%
03:00 +12°C° 0 mm 1 mps 738 mmHg 81%
04:00 +12°C° 0 mm 1 mps 738 mmHg 81%
05:00 +12°C° 0 mm 1 mps 738 mmHg 82%
06:00 +13°C° 0 mm 1 mps 738 mmHg 80%
07:00 +13°C° 0 mm 1 mps 739 mmHg 77%
08:00 +14°C° 0 mm 1 mps 739 mmHg 75%
09:00 +15°C° 0 mm 1 mps 739 mmHg 70%
10:00 +18°C° 0 mm 1 mps 739 mmHg 65%
11:00 +18°C° 0 mm 2 mps 739 mmHg 59%
12:00 +19°C° 0 mm 2 mps 739 mmHg 58%
13:00 +20°C° 0 mm 2 mps 739 mmHg 56%
14:00 +20°C° 0 mm 2 mps 739 mmHg 54%
15:00 +19°C° 0 mm 3 mps 739 mmHg 61%
16:00 +18°C° 0 mm 3 mps 739 mmHg 68%
17:00 +17°C° 0 mm 3 mps 738 mmHg 74%
18:00 +16°C° 0 mm 3 mps 739 mmHg 78%
19:00 +16°C° 0 mm 3 mps 739 mmHg 81%
20:00 +14°C° 0 mm 3 mps 739 mmHg 85%
21:00 +14°C° 0 mm 3 mps 739 mmHg 86%
22:00 +14°C° 0 mm 2 mps 739 mmHg 88%
23:00 +14°C° 0 mm 2 mps 739 mmHg 89%

Tomorrow, 28 October, Wednesday

Time Temperature Precipitation Wind Pressure Humidity
00:00 +14°C° 0 mm 1 mps 739 mmHg 89%
01:00 +14°C° 0 mm 1 mps 739 mmHg 89%
02:00 +13°C° 0 mm 1 mps 739 mmHg 89%
03:00 +13°C° 0 mm 1 mps 739 mmHg 89%
04:00 +13°C° 0 mm 1 mps 738 mmHg 89%
05:00 +13°C° 0 mm 1 mps 738 mmHg 89%
06:00 +13°C° 0 mm 1 mps 738 mmHg 88%
07:00 +14°C° 0 mm 1 mps 739 mmHg 86%
08:00 +14°C° 0 mm 2 mps 739 mmHg 85%
09:00 +16°C° 0 mm 2 mps 739 mmHg 77%
10:00 +17°C° 0 mm 2 mps 739 mmHg 68%
11:00 +19°C° 0 mm 2 mps 740 mmHg 60%
12:00 +19°C° 0 mm 2 mps 739 mmHg 56%
13:00 +21°C° 0 mm 1 mps 739 mmHg 53%
14:00 +22°C° 0 mm 1 mps 739 mmHg 50%
15:00 +19°C° 0 mm 2 mps 739 mmHg 56%
16:00 +18°C° 0 mm 2 mps 739 mmHg 62%
17:00 +17°C° 0 mm 3 mps 739 mmHg 69%
18:00 +16°C° 0 mm 2 mps 739 mmHg 74%
19:00 +16°C° 0 mm 2 mps 739 mmHg 78%
20:00 +15°C° 0 mm 1 mps 739 mmHg 83%
21:00 +15°C° 0 mm 1 mps 739 mmHg 83%
22:00 +14°C° 0 mm 1 mps 739 mmHg 83%
23:00 +14°C° 0 mm 1 mps 739 mmHg 83%

Day after tomorrow, 29 October, Thursday

Time Temperature Precipitation Wind Pressure Humidity
00:00 +14°C° 0 mm 1 mps 739 mmHg 81%
01:00 +14°C° 0 mm 1 mps 739 mmHg 79%
02:00 +14°C° 0 mm 1 mps 739 mmHg 77%
03:00 +14°C° 0 mm 1 mps 739 mmHg 77%
04:00 +14°C° 0 mm 2 mps 739 mmHg 77%
05:00 +14°C° 0 mm 2 mps 738 mmHg 77%
06:00 +14°C° 0 mm 2 mps 739 mmHg 77%
07:00 +14°C° 0 mm 2 mps 739 mmHg 77%
08:00 +15°C° 0 mm 2 mps 739 mmHg 76%
09:00 +15°C° 0 mm 2 mps 739 mmHg 73%
10:00 +16°C° 0 mm 2 mps 739 mmHg 70%
11:00 +17°C° 0 mm 2 mps 739 mmHg 66%
12:00 +18°C° 0 mm 3 mps 739 mmHg 63%
13:00 +18°C° 0 mm 3 mps 739 mmHg 61%
14:00 +19°C° 0 mm 3 mps 739 mmHg 58%
15:00 +18°C° 0 mm 3 mps 739 mmHg 61%
16:00 +17°C° 0 mm 2 mps 739 mmHg 64%
17:00 +17°C° 0 mm 2 mps 739 mmHg 67%
18:00 +16°C° 0 mm 2 mps 739 mmHg 70%
19:00 +15°C° 0 mm 2 mps 739 mmHg 73%
20:00 +15°C° 0 mm 2 mps 740 mmHg 76%
21:00 +14°C° 0 mm 2 mps 740 mmHg 77%
22:00 +14°C° 0 mm 2 mps 740 mmHg 78%
23:00 +13°C° 0 mm 3 mps 740 mmHg 79%

30 October, Friday

Time Temperature Precipitation Wind Pressure Humidity
00:00 +12°C° 0 mm 3 mps 740 mmHg 80%
01:00 +12°C° 0 mm 3 mps 740 mmHg 82%
02:00 +12°C° 0 mm 3 mps 740 mmHg 83%
03:00 +11°C° 0 mm 3 mps 740 mmHg 83%
04:00 +11°C° 0 mm 3 mps 740 mmHg 83%
05:00 +11°C° 0 mm 3 mps 740 mmHg 83%
06:00 +11°C° 0 mm 4 mps 740 mmHg 82%
07:00 +12°C° 0 mm 4 mps 740 mmHg 80%
08:00 +12°C° 0 mm 5 mps 740 mmHg 79%
09:00 +13°C° 0 mm 5 mps 741 mmHg 74%
10:00 +14°C° 0 mm 5 mps 741 mmHg 69%
11:00 +15°C° 0 mm 5 mps 741 mmHg 65%
12:00 +15°C° 0 mm 5 mps 740 mmHg 64%
13:00 +15°C° 0 mm 5 mps 740 mmHg 64%
14:00 +16°C° 0 mm 5 mps 740 mmHg 63%
15:00 +15°C° 0.7 mm 5 mps 740 mmHg 66%
16:00 +14°C° 0.7 mm 4 mps 740 mmHg 69%
17:00 +13°C° 0.7 mm 3 mps 740 mmHg 72%
18:00 +12°C° 0.4 mm 4 mps 741 mmHg 74%
19:00 +11°C° 0.4 mm 4 mps 741 mmHg 77%
20:00 +9°C° 0.4 mm 5 mps 741 mmHg 79%
21:00 +9°C° 0.1 mm 5 mps 741 mmHg 81%
22:00 +8°C° 0.1 mm 4 mps 742 mmHg 83%
23:00 +8°C° 0.1 mm 4 mps 742 mmHg 85%

31 October, Saturday

Time Temperature Precipitation Wind Pressure Humidity
00:00 +7°C° 0 mm 4 mps 742 mmHg 82%
01:00 +7°C° 0 mm 4 mps 742 mmHg 79%
02:00 +7°C° 0 mm 4 mps 742 mmHg 77%
03:00 +6°C° 0 mm 4 mps 742 mmHg 79%
04:00 +7°C° 0 mm 3 mps 742 mmHg 82%
05:00 +7°C° 0 mm 3 mps 742 mmHg 84%
06:00 +7°C° 0 mm 3 mps 742 mmHg 79%
07:00 +7°C° 0 mm 3 mps 742 mmHg 75%
08:00 +8°C° 0 mm 3 mps 742 mmHg 70%
09:00 +9°C° 0 mm 3 mps 742 mmHg 62%
10:00 +11°C° 0 mm 3 mps 742 mmHg 55%
11:00 +12°C° 0 mm 4 mps 742 mmHg 47%
12:00 +12°C° 0 mm 3 mps 742 mmHg 48%
13:00 +12°C° 0 mm 3 mps 741 mmHg 50%
14:00 +12°C° 0 mm 3 mps 741 mmHg 51%
15:00 +11°C° 0.8 mm 3 mps 741 mmHg 62%
16:00 +10°C° 0.8 mm 3 mps 740 mmHg 74%
17:00 +8°C° 0.8 mm 2 mps 740 mmHg 85%
18:00 +8°C° 0.9 mm 3 mps 740 mmHg 85%
19:00 +7°C° 0.9 mm 4 mps 740 mmHg 85%
20:00 +7°C° 0.9 mm 4 mps 740 mmHg 86%
21:00 +7°C° 0.7 mm 5 mps 741 mmHg 84%
22:00 +7°C° 0.7 mm 5 mps 741 mmHg 82%
23:00 +7°C° 0.7 mm 5 mps 741 mmHg 80%

1 November, Sunday

Time Temperature Precipitation Wind Pressure Humidity
00:00 +5°C° 0.3 mm 6 mps 741 mmHg 78%
01:00 +5°C° 0.3 mm 6 mps 741 mmHg 77%
02:00 +5°C° 0.3 mm 6 mps 741 mmHg 75%
03:00 +5°C° 0.1 mm 6 mps 741 mmHg 78%
04:00 +4°C° 0.1 mm 6 mps 741 mmHg 81%
05:00 +4°C° 0.1 mm 6 mps 741 mmHg 84%
06:00 +4°C° 0 mm 6 mps 741 mmHg 84%
07:00 +5°C° 0 mm 6 mps 742 mmHg 85%
08:00 +5°C° 0 mm 6 mps 742 mmHg 85%
09:00 +5°C° 0 mm 6 mps 742 mmHg 84%
10:00 +6°C° 0 mm 7 mps 742 mmHg 82%
11:00 +6°C° 0 mm 7 mps 743 mmHg 81%
12:00 +6°C° 0 mm 7 mps 742 mmHg 80%
13:00 +6°C° 0 mm 7 mps 742 mmHg 79%
14:00 +6°C° 0 mm 7 mps 742 mmHg 79%
15:00 +6°C° 0 mm 7 mps 742 mmHg 81%
16:00 +6°C° 0 mm 7 mps 742 mmHg 82%
17:00 +7°C° 0 mm 6 mps 742 mmHg 84%
18:00 +6°C° 0 mm 7 mps 743 mmHg 84%
19:00 +6°C° 0 mm 7 mps 743 mmHg 85%
20:00 +6°C° 0 mm 7 mps 743 mmHg 86%
21:00 +6°C° 0 mm 7 mps 743 mmHg 86%
22:00 +6°C° 0 mm 7 mps 743 mmHg 86%
23:00 +6°C° 0 mm 7 mps 743 mmHg 86%
Show more